星链-3320 (STARLINK-3320 )

导读

STARLINK-3320是美国太空探索技术公司(SpaceX)星链(Starlink)星座的成员卫星,于2022年1月6日发射入轨。星链计划旨在构建全球低轨宽带互联网星座,为全球基础设施薄弱地区提供高速、低时延互联网服务,并已拓展至航空、海事及军事通信等领域。作为星座组网卫星,STARLINK-3320助力星链实现全球覆盖,推动天基通信基础设施建设。

Basic Information
目录编号:
50839
目录名称:
STARLINK-3320
国际标识:
2022-001AN
轨道中心:
EARTH
卫星名称:
星链-3320
卫星全名:
星链-3320 (STARLINK-3320 )
卫星状态:
在轨 (已飞行1623 天)
发射日期:
2022-01-06 UTC
国别 :
美国 (US)
星等 :
--
Orbit Information
数据来源 国际轨道数据 AOE轨道数据
星历时间 2026-06-18T00:00:02+0800
5小时前
查看轨道信息
2026-06-14T02:00:00+0800
4天前
查看轨道信息
半长轴 6909.339km 6917.9km
偏心率 0.0002772 0.0001536
轨道倾角 53.159° 53.160°
近地点辐角 81.542° 77.514°
升交点赤经 90.198° 107.816°
平近点角 71.345° 23.095°
近地点 529.286km 538.7km
远地点 533.118km 540.826km
周期 95.261分钟 95.438分钟
每日圈数 15.11639 15.088337
Detailed Information
固有亮度:
5
最大亮度:
2.5
卫星平台:
Starlink v1.5
覆盖范围:
全球
运营商:
太空探索技术公司
运营商所在国:
美国
制造商(研发单位):
太空探索技术公司
制造商所在国:
美国
使用方式:
暂无
Satellite Introduction
星链(Starlink)计划是由太空探索技术公司(SpaceX)提出的一个巨型低轨卫星互联网星座项目,计划在2019年至2024年间在太空搭建由约1.2万颗卫星组成的“星链”网络,其中1584颗将部署在地球上空550千米处的近地轨道,并从2020年开始工作。该卫星仍在工作。
2D Orbit Map
3D Orbit Map
Orbit Altitude Analysis Chart
Orbit Inclination Analysis Chart
Orbit Comprehensive Analysis Chart
View Comprehensive Chart